sat.trackr.live / text

‹ back to catalog

STARLINK-32507

NORAD 62132 · 2024-222U

PAYLOAD ACTIVE UNKNOWN

§ Identity

Operator
Country
US
Launch date
2024-11-27
Launch site
AFETR
Launch vehicle
Mass (kg)
RCS (m²)

Purposes: comms

External: N2YO · Heavens-Above · Gunter

§ Orbital elements

Epoch: 2026-09-20T23:57:07.619904Z

Period
94.27 min
Inclination
43.0013°
Eccentricity
0.0001395
Mean motion
15.27590863 rev/d
Perigee alt
482.1 km
Apogee alt
484.0 km
Semi-major
6,861.2 km
B*
3.7892e-4
RAAN
112.7689°
Arg perigee
273.3081°
Mean anomaly
86.7611°
Rev number
10,247

§ Raw data

STARLINK-325071 62132U 24222U   26263.99800486  .00010183  00000+0  37892-3 0  99932 62132  43.0013 112.7689 0001395 273.3081  86.7611 15.27590863102472

JSON: /api/v1/satellites/62132 · /tle

For live sub-satellite position, see the globe view (requires WebGL).

§ Visibility from observer

Set your observer location to see the next 7 days of passes ≥ 10°. The values pass through the URL so the page stays shareable.

No JS? Fill the form by hand. The geolocation button needs JavaScript.